Powrót do katalogu

NOAA 16 DEB

AktywnyPO
NORAD 41669·DEBRIS·🇺🇸 United States

Wystrzelony Sep 21, 2000 z Vandenberg Space Force Base

Loading…

Następne Przeloty (najbliższe 24 godziny)

TLE

ŚwieżeSource: Space-Track

Epoka: Sep 13, 2026, 19:14 UTC

1 41669U 00055PJ  26256.80158164  .00010703  00000-0  21458-2 0  9993
2 41669  98.7124  19.7642 0016087 215.8982 144.1138 14.61844222542574

Śledź NOAA 16 DEB w czasie rzeczywistym z AllMySat

Download on the App Store